Temperature
21 18 18 18 19 20 20 20 20 20 21 21 20 19 19 20 19 19 19 19 19 19 19 18 18 18 18 18 17 17 17 17 17 16 16 16 16 15 15 15 15 15 14 14
18 18 20 20 21 20 20 20 20 20 21 21 19 19 19 19 19 19 19 19 19 19 18 18 18 18 18 18 17 17 17 17 17 16 16 16 16 15 15 15 15 14 14 14
18 19 21 21 21 20 20 20 20 20 21 20 20 19 19 19 19 20 19 19 19 19 19 18 18 18 18 18 17 17 17 17 17 16 16 16 16 15 15 15 15 14 14 14
19 20 21 21 20 20 19 21 21 21 19 18 19 17 18 18 18 18 18 19 19 19 19 18 18 18 18 18 17 17 17 17 16 16 16 16 16 15 15 15 15 14 14 14
19 20 21 20 21 21 20 21 21 20 19 18 18 17 17 18 18 17 18 18 18 19 19 19 18 18 18 18 17 17 17 17 16 16 16 16 16 15 15 15 14 14 14 14
20 21 21 21 21 21 21 20 19 17 17 17 18 17 17 16 18 18 17 18 18 19 19 18 18 18 18 17 17 17 17 17 16 16 16 16 15 15 15 15 14 14 14 14
19 20 20 21 20 20 19 17 16 17 16 16 17 17 17 17 18 18 17 18 18 18 18 18 18 18 17 17 17 17 17 16 16 16 16 15 15 15 15 15 14 14 14 14
17 17 19 20 19 19 18 17 16 16 16 16 18 17 17 18 18 18 18 18 18 18 18 18 18 18 17 17 17 17 16 16 16 16 15 15 15 15 14 14 14 14 14 14
17 17 19 20 20 19 18 17 17 16 16 16 16 17 18 18 17 17 17 17 17 17 17 17 17 17 17 17 17 17 16 16 16 15 15 15 15 14 14 14 14 14 14 14
17 17 18 19 20 19 19 17 15 16 16 16 16 16 16 17 16 16 16 16 17 17 17 17 17 17 17 16 16 16 16 16 15 15 15 15 14 14 14 14 14 13 13 13
17 16 17 18 18 18 18 18 16 15 15 15 15 16 17 16 16 16 16 16 17 17 17 17 17 16 16 16 16 16 15 15 15 15 14 14 14 14 14 14 13 13 13 13
16 14 15 16 18 18 18 18 16 15 15 14 14 15 17 16 16 16 16 17 17 17 17 16 16 16 16 16 15 15 15 15 14 14 14 14 14 14 14 13 13 13 13 13
16 14 14 15 16 17 18 18 16 15 14 13 14 15 16 16 16 16 16 16 16 16 16 16 16 16 16 15 15 15 15 14 14 14 14 14 14 13 13 13 13 13 12 12
16 14 14 15 15 16 17 17 17 15 14 14 14 15 16 16 15 15 16 16 16 16 16 16 15 15 15 15 15 15 14 14 14 14 13 13 13 13 13 13 12 12 12 12
14 14 15 15 16 16 17 17 17 16 15 14 15 15 15 15 15 16 16 16 16 16 15 15 15 15 15 15 14 14 14 14 13 13 13 13 13 13 12 12 12 12 12 11
13 14 15 15 16 16 16 16 17 16 16 15 15 15 15 15 16 15 15 15 15 15 15 15 15 15 15 14 14 14 14 13 13 13 13 12 12 12 12 12 12 12 11 11
12 13 13 13 14 15 15 16 16 16 16 15 15 15 14 14 14 15 15 15 15 15 15 15 15 15 14 14 14 14 13 13 13 12 12 12 12 12 12 11 11 11 11 11
12 12 11 12 14 14 15 15 16 15 15 15 15 14 14 15 15 16 16 15 15 15 15 15 14 14 14 14 14 13 13 13 12 12 12 12 12 11 11 11 11 11 10 10
12 12 11 11 12 13 15 15 16 15 15 15 14 14 14 15 14 14 15 15 15 15 15 14 14 14 14 13 13 13 13 12 12 12 12 11 11 11 11 11 10 10 10 10
12 11 11 11 13 13 14 15 16 15 14 14 14 14 14 14 11 12 15 15 15 15 14 14 14 13 13 13 13 13 12 12 12 12 11 11 11 11 10 10 10 10 10 10
12 11 11 11 12 12 14 15 16 14 13 14 15 15 14 13 13 15 15 14 14 14 14 13 13 13 13 12 12 12 12 12 12 11 11 11 10 10 10 10 10 10 9 9
11 11 11 10 11 12 14 14 14 13 15 15 15 15 15 15 15 14 14 14 14 13 13 13 13 12 12 12 12 12 11 11 11 11 11 10 10 10 10 10 9 9 9 9
11 12 11 11 12 13 15 15 16 16 15 15 15 15 15 15 14 14 14 14 13 13 13 12 12 12 12 11 11 11 11 11 11 10 10 10 10 10 9 9 9 9 9 9
11 11 11 11 12 13 15 15 16 15 15 15 15 15 15 14 14 13 13 13 13 12 12 12 12 11 11 11 11 11 11 10 10 10 10 10 9 9 9 9 8 8 8 8
11 11 11 11 12 13 14 15 15 15 15 15 15 15 14 14 13 13 13 13 12 12 12 11 11 11 11 10 10 10 10 10 10 10 9 9 9 9 8 8 8 8 8 7
10 11 11 11 12 12 14 15 15 15 14 14 14 14 14 13 13 13 13 12 12 12 11 11 11 10 10 10 10 10 10 9 9 9 9 9 8 8 8 8 7 7 7 7
Wind_Speed
1 3 3 6 7 6 4 3 3 4 3 4 5 6 7 7 7 8 8 9 9 8 7 7 7 7 6 5 5 5 5 4 5 3 3 3 2 1 1 2 3 4 4 4
4 3 7 6 4 2 2 2 2 2 2 3 4 5 5 7 8 9 11 11 10 7 5 6 6 6 7 7 6 6 6 5 5 4 3 3 3 2 2 1 2 3 4 4
5 6 3 2 2 1 2 3 4 3 1 2 2 4 3 3 4 5 7 9 9 10 9 8 7 7 7 7 7 7 7 6 6 5 4 3 3 2 2 1 0 1 3 3
3 4 2 2 2 3 3 4 4 3 1 3 2 3 6 4 3 4 5 7 8 8 8 8 8 8 8 8 7 7 8 7 6 6 6 6 4 3 3 2 1 1 2 2
3 1 2 2 3 3 4 3 1 2 2 2 1 3 6 2 4 6 6 7 8 9 9 8 8 9 8 7 7 7 7 6 5 6 7 6 4 3 2 2 2 1 0 1
3 2 2 3 2 2 1 3 5 4 3 2 5 5 5 4 7 6 5 5 7 8 8 7 6 6 5 5 5 6 6 6 6 6 6 7 6 5 4 3 2 1 1 1
3 3 1 1 2 3 5 5 3 3 2 5 3 4 6 6 4 6 6 6 5 6 7 6 6 5 5 6 6 6 7 6 6 6 6 6 6 6 7 5 4 3 2 2
1 3 2 1 3 3 3 6 6 4 4 4 2 3 4 1 2 4 5 5 5 5 5 6 6 6 6 6 6 7 7 6 6 6 6 5 5 4 4 5 4 4 4 4
3 3 3 1 1 4 3 3 6 5 2 2 3 2 3 3 5 5 6 6 4 4 4 5 4 4 5 5 5 7 7 6 6 6 5 5 5 5 4 4 4 3 3 3
4 2 3 1 2 0 4 4 4 3 2 2 3 3 4 3 3 3 3 4 4 3 3 3 4 4 3 4 4 4 6 6 5 5 6 5 4 4 4 3 3 3 3 3
3 3 3 1 3 4 2 1 3 3 4 4 3 5 4 7 7 6 5 5 5 4 4 3 3 3 3 3 4 3 3 4 4 4 4 4 3 3 3 3 4 3 3 2
1 3 2 5 5 4 4 4 4 3 3 3 3 6 3 5 5 6 5 4 4 4 3 3 3 4 4 4 3 3 2 3 3 4 4 4 3 3 3 3 3 3 3 3
2 4 2 5 6 3 1 2 3 4 3 3 3 6 2 1 2 3 4 4 4 4 3 3 2 3 3 4 3 3 3 3 3 3 4 3 3 3 3 3 3 2 3 3
2 3 5 7 6 4 4 4 2 3 3 4 6 6 4 3 3 3 4 5 4 4 4 3 2 2 2 3 3 3 3 3 3 3 4 4 4 4 4 3 3 2 2 2
3 2 4 6 6 4 6 6 6 6 7 7 7 7 7 7 6 6 5 5 4 3 3 4 3 3 2 2 2 3 2 2 3 3 3 4 3 3 3 3 2 2 2 2
2 2 1 4 4 4 5 7 7 7 5 6 5 5 5 3 2 2 4 5 4 3 3 2 2 2 3 3 3 3 3 3 3 3 3 3 2 2 2 3 3 2 2 2
2 3 1 4 5 4 6 6 6 5 4 6 7 7 3 2 4 5 5 5 5 4 3 3 3 3 4 4 4 4 4 3 3 3 3 3 3 2 2 2 2 3 3 2
5 4 2 1 1 5 7 3 3 3 3 4 4 4 5 6 5 4 4 5 5 4 3 3 3 3 3 3 3 3 3 3 3 3 3 3 3 3 2 2 3 3 2 2
5 5 3 2 3 6 6 3 3 3 3 2 4 3 3 3 2 1 2 3 5 5 4 4 3 3 2 3 3 3 3 3 3 3 4 4 4 4 3 3 3 3 2 2
3 4 4 3 3 6 6 4 2 3 4 4 4 5 4 4 2 4 3 2 2 2 2 2 2 1 2 2 2 3 3 4 5 5 5 4 4 4 4 4 4 2 3 3
1 1 3 4 5 6 6 3 3 3 6 3 4 5 5 5 6 5 3 2 2 2 2 2 2 2 3 3 3 3 2 4 5 4 4 3 3 4 4 3 3 2 2 2
6 4 4 4 4 7 3 3 5 6 3 3 3 5 5 4 3 3 3 2 2 1 1 1 2 2 2 3 4 3 4 4 2 2 3 3 3 3 2 2 2 2 2 2
5 7 5 6 7 5 3 4 4 4 4 4 4 4 5 4 3 3 2 3 2 2 2 1 2 2 2 2 4 4 4 2 1 2 2 2 2 2 2 2 2 1 2 2
4 2 3 3 5 4 3 2 2 3 4 4 4 4 5 5 4 4 3 3 2 2 2 1 1 2 2 3 3 4 3 2 2 2 3 2 2 2 2 2 2 2 2 2
6 3 3 4 5 3 3 3 3 2 2 2 2 3 5 5 4 4 3 4 3 3 2 2 2 3 3 3 3 2 2 3 2 2 3 3 3 3 2 1 2 3 4 4
4 5 5 6 6 5 6 4 3 3 3 3 3 1 2 4 5 4 4 4 3 3 2 2 2 2 3 3 3 2 2 3 3 2 3 3 2 2 2 1 1 3 3 4
Wind_Direction
50 87 207 217 206 205 198 182 210 230 213 177 206 219 222 200 183 187 187 184 186 192 190 170 168 163 158 154 149 151 148 153 146 135 129 121 128 120 86 89 105 103 102 109
45 244 234 222 222 197 190 189 221 268 235 181 208 238 233 205 197 191 187 187 186 184 181 175 170 164 167 169 165 157 161 160 160 159 155 150 148 147 150 103 92 103 109 115
189 235 228 207 219 200 271 204 205 207 319 12 89 315 278 248 198 181 186 185 181 180 182 183 180 177 171 174 176 171 172 168 166 154 131 113 88 70 66 65 113 108 128 125
230 249 212 202 222 182 245 238 195 183 115 272 148 245 272 245 205 199 196 185 183 183 179 177 183 183 183 186 180 172 171 167 166 156 149 150 152 165 193 185 187 175 137 136
247 226 158 207 229 186 217 247 219 196 163 285 259 177 274 245 208 218 209 193 186 182 175 176 184 187 186 181 174 170 166 166 167 164 161 158 161 172 167 158 155 168 182 151
240 241 179 204 229 179 137 41 26 43 81 265 232 180 257 230 213 202 200 190 178 175 171 169 170 170 173 170 166 162 160 167 168 163 161 162 165 167 157 166 176 193 237 243
332 318 300 132 50 12 78 85 33 352 352 253 229 173 238 237 206 179 177 178 170 165 162 158 158 164 169 172 173 166 162 166 169 165 168 173 173 173 175 181 188 191 202 224
176 281 270 187 172 193 179 144 160 199 227 276 322 211 254 275 147 133 130 132 128 139 146 157 172 174 175 175 174 171 172 172 170 173 182 182 177 176 186 187 185 194 204 215
170 250 288 257 174 154 163 189 174 150 228 259 275 289 338 57 76 91 103 107 127 143 146 155 152 159 171 172 174 172 170 168 175 180 181 183 181 181 189 191 188 199 211 210
155 215 269 309 48 21 167 160 97 126 180 249 274 246 221 201 171 132 132 141 155 148 142 148 152 161 162 165 166 160 162 169 172 176 181 183 185 183 182 180 194 201 213 209
114 166 291 354 201 212 185 151 131 143 163 171 237 263 219 191 183 178 185 176 162 156 160 163 169 168 153 127 123 131 147 156 166 177 182 176 182 178 174 182 197 201 200 195
91 126 227 258 269 217 182 184 151 166 236 185 190 257 256 184 184 178 182 181 165 154 157 156 158 148 141 139 138 147 150 156 175 180 172 168 171 169 172 186 197 190 192 198
76 104 66 335 331 341 229 200 164 148 149 177 193 257 312 119 139 160 165 173 168 156 144 129 125 150 163 163 164 167 170 173 174 165 163 168 176 181 185 192 201 201 200 204
92 127 176 203 226 243 253 262 212 146 181 219 222 234 260 230 199 201 189 184 173 166 157 150 155 167 177 175 179 179 188 181 166 166 169 178 192 194 198 195 190 200 195 195
92 176 225 236 246 242 248 248 239 216 203 209 234 220 225 215 205 200 186 172 158 161 165 168 176 185 173 166 180 185 193 195 175 165 181 200 202 197 194 194 191 192 186 198
92 185 269 281 276 277 272 261 242 237 224 220 222 243 244 209 171 155 157 157 160 174 181 190 184 184 185 188 196 191 191 197 175 172 197 199 179 175 192 203 198 194 201 208
157 152 167 271 298 328 278 251 227 226 220 198 215 228 193 163 177 189 186 184 193 193 180 186 200 208 206 198 192 196 198 185 168 182 195 194 187 192 209 210 197 206 216 210
161 149 157 229 3 247 247 259 198 189 251 218 199 206 185 188 194 194 183 183 192 193 194 204 213 219 222 203 197 199 187 178 178 191 207 206 200 208 209 194 201 213 210 212
161 151 150 158 219 270 285 275 189 180 256 237 181 186 176 145 78 341 227 185 196 201 200 206 207 203 202 198 191 168 181 186 189 205 212 212 201 199 198 205 216 217 203 215
90 119 138 159 197 237 248 270 232 129 249 260 183 176 171 130 138 254 259 215 205 198 200 189 180 163 192 217 171 159 189 199 210 216 214 207 197 193 201 213 219 212 201 213
107 114 171 195 224 257 258 276 97 177 237 244 188 181 175 183 206 221 223 211 205 193 195 168 160 182 214 203 159 171 195 227 226 212 201 199 203 200 202 204 202 206 209 209
187 186 198 178 211 254 259 128 176 219 223 190 189 185 180 193 199 191 183 194 192 190 202 173 178 219 222 187 166 188 224 243 223 183 189 203 212 212 205 190 200 200 192 193
201 194 194 197 221 249 217 197 214 180 183 205 200 207 177 175 197 196 198 199 207 210 216 208 191 213 240 208 184 199 232 226 173 172 210 225 223 222 198 187 193 202 198 201
267 202 176 235 259 256 243 232 225 189 196 214 207 199 176 182 196 204 201 208 212 218 207 194 169 201 237 235 217 211 212 174 156 185 205 206 204 225 226 205 200 204 214 222
241 201 212 242 261 276 274 243 231 226 189 175 178 178 174 172 194 201 204 213 210 212 211 188 190 211 232 230 228 221 193 164 168 190 197 205 207 206 217 230 229 229 229 221
226 199 198 229 228 207 241 247 216 186 193 187 173 175 181 179 192 198 204 209 202 200 202 196 207 220 232 224 230 228 200 180 181 199 201 201 197 193 186 195 319 318 279 261
Height
1505 1511 1515 1512 1511 1511 1513 1516 1518 1514 1508 1511 1514 1515 1513 1512 1514 1514 1516 1517 1518 1520 1522 1524 1525 1527 1528 1529 1530 1531 1532 1533 1534 1534 1535 1535 1535 1535 1536 1536 1536 1536 1536 1536
1511 1513 1507 1505 1506 1508 1511 1516 1517 1512 1507 1510 1514 1514 1511 1510 1510 1511 1512 1514 1516 1518 1520 1522 1523 1525 1526 1527 1528 1530 1531 1531 1532 1533 1534 1534 1535 1535 1535 1535 1536 1536 1536 1536
1512 1508 1503 1505 1507 1510 1512 1514 1514 1514 1510 1510 1514 1519 1513 1510 1509 1510 1511 1511 1513 1515 1516 1518 1520 1522 1523 1525 1526 1527 1529 1530 1531 1532 1533 1533 1534 1534 1534 1534 1535 1535 1535 1535
1507 1502 1503 1505 1508 1508 1515 1507 1507 1510 1518 1524 1520 1534 1519 1512 1510 1509 1509 1510 1511 1513 1514 1516 1518 1519 1521 1522 1524 1525 1527 1528 1529 1530 1531 1531 1532 1532 1532 1533 1534 1534 1534 1534
1507 1502 1503 1506 1505 1505 1508 1504 1506 1509 1516 1524 1522 1530 1525 1513 1513 1510 1508 1507 1508 1510 1512 1514 1515 1517 1519 1521 1522 1523 1525 1526 1527 1528 1529 1530 1530 1531 1532 1532 1533 1533 1533 1533
1503 1500 1501 1502 1501 1501 1502 1506 1510 1516 1523 1533 1523 1528 1527 1516 1509 1507 1506 1506 1506 1508 1510 1512 1514 1516 1518 1520 1521 1522 1523 1524 1525 1526 1527 1528 1529 1529 1530 1531 1531 1531 1532 1532
1508 1503 1501 1501 1504 1504 1507 1521 1534 1535 1540 1535 1518 1522 1522 1506 1503 1503 1503 1504 1505 1506 1508 1510 1512 1514 1515 1517 1519 1520 1521 1522 1523 1524 1525 1526 1527 1528 1528 1529 1530 1530 1530 1530
1518 1517 1504 1502 1505 1509 1510 1518 1535 1542 1542 1533 1519 1522 1514 1502 1501 1501 1502 1503 1505 1506 1507 1508 1510 1511 1513 1515 1516 1517 1519 1520 1521 1522 1523 1524 1525 1526 1527 1527 1528 1528 1528 1529
1518 1516 1503 1500 1500 1504 1510 1516 1516 1528 1529 1534 1527 1517 1509 1503 1503 1503 1503 1504 1505 1506 1507 1508 1509 1510 1512 1513 1514 1515 1516 1518 1519 1520 1521 1522 1523 1524 1524 1525 1526 1526 1527 1527
1508 1515 1506 1502 1501 1502 1505 1509 1520 1527 1535 1539 1530 1524 1519 1509 1507 1505 1505 1505 1505 1506 1507 1508 1508 1509 1510 1511 1513 1514 1515 1516 1517 1518 1519 1520 1521 1522 1522 1523 1524 1524 1524 1525
1506 1514 1512 1507 1507 1508 1508 1510 1515 1525 1529 1537 1538 1528 1505 1505 1503 1504 1504 1504 1505 1505 1506 1507 1507 1508 1509 1510 1511 1512 1513 1514 1515 1516 1517 1518 1518 1519 1520 1521 1521 1521 1522 1522
1507 1515 1519 1511 1503 1500 1503 1506 1514 1526 1527 1529 1533 1525 1499 1500 1500 1502 1503 1504 1504 1504 1505 1506 1507 1507 1508 1509 1510 1511 1512 1513 1513 1514 1515 1515 1516 1517 1517 1518 1518 1519 1519 1520
1507 1515 1524 1521 1515 1506 1504 1504 1508 1515 1523 1529 1531 1521 1499 1499 1501 1501 1502 1503 1504 1504 1505 1505 1506 1506 1507 1507 1508 1509 1510 1511 1511 1512 1513 1513 1514 1514 1514 1515 1516 1516 1516 1517
1504 1513 1520 1523 1517 1509 1507 1504 1504 1512 1523 1523 1519 1512 1504 1501 1501 1501 1501 1502 1503 1503 1504 1504 1504 1505 1506 1506 1507 1507 1508 1509 1509 1510 1510 1510 1511 1512 1512 1513 1513 1514 1514 1514
1504 1512 1510 1508 1504 1504 1503 1502 1502 1506 1509 1514 1510 1506 1502 1499 1499 1499 1500 1501 1501 1502 1503 1503 1503 1503 1504 1504 1505 1506 1506 1507 1507 1507 1507 1508 1509 1509 1510 1510 1510 1511 1511 1511
1505 1510 1509 1507 1502 1502 1502 1499 1499 1499 1500 1502 1502 1503 1497 1497 1497 1498 1500 1500 1501 1501 1501 1502 1502 1502 1502 1502 1503 1504 1504 1505 1505 1505 1505 1505 1506 1506 1507 1507 1508 1508 1508 1507
1507 1510 1514 1515 1507 1504 1507 1498 1496 1496 1495 1497 1501 1499 1496 1497 1497 1498 1498 1499 1499 1499 1499 1500 1500 1500 1500 1501 1501 1501 1502 1503 1503 1503 1503 1503 1503 1504 1504 1504 1504 1504 1504 1504
1505 1509 1515 1516 1512 1516 1502 1491 1490 1492 1493 1491 1491 1492 1492 1493 1495 1496 1496 1497 1497 1498 1498 1498 1498 1498 1499 1499 1499 1499 1500 1500 1500 1500 1500 1501 1501 1501 1501 1501 1501 1501 1501 1501
1498 1505 1514 1517 1516 1509 1497 1489 1489 1492 1493 1490 1490 1490 1491 1492 1493 1495 1495 1495 1495 1496 1496 1496 1497 1496 1496 1496 1496 1496 1497 1497 1497 1497 1498 1498 1498 1498 1498 1498 1498 1498 1498 1498
1498 1501 1511 1515 1514 1512 1497 1487 1485 1489 1495 1488 1487 1488 1489 1490 1496 1495 1493 1493 1493 1494 1494 1494 1494 1494 1494 1494 1494 1494 1493 1494 1494 1494 1495 1495 1495 1495 1495 1495 1495 1495 1495 1495
1503 1506 1510 1512 1511 1502 1489 1485 1486 1498 1494 1486 1485 1486 1487 1488 1490 1490 1491 1491 1491 1491 1492 1492 1492 1491 1491 1491 1491 1491 1490 1491 1491 1492 1492 1492 1492 1492 1492 1492 1492 1492 1492 1492
1501 1505 1507 1508 1509 1502 1484 1484 1488 1487 1483 1483 1484 1484 1485 1486 1487 1487 1488 1488 1489 1489 1489 1489 1489 1489 1489 1489 1488 1488 1488 1488 1489 1489 1489 1489 1489 1489 1488 1488 1488 1488 1488 1488
1494 1493 1495 1496 1494 1484 1481 1481 1481 1481 1481 1481 1482 1482 1483 1484 1484 1485 1486 1486 1486 1487 1486 1486 1486 1486 1486 1486 1485 1485 1485 1485 1485 1485 1485 1485 1485 1485 1485 1485 1484 1484 1485 1484
1488 1486 1488 1489 1484 1480 1479 1479 1479 1479 1479 1480 1480 1480 1480 1481 1482 1483 1483 1484 1484 1484 1484 1484 1483 1483 1482 1483 1483 1482 1482 1482 1482 1482 1482 1482 1482 1482 1481 1481 1481 1481 1480 1480
1484 1484 1486 1485 1481 1479 1478 1478 1478 1478 1478 1478 1478 1478 1478 1479 1480 1480 1481 1481 1481 1481 1481 1481 1480 1480 1479 1479 1479 1479 1479 1479 1479 1478 1478 1478 1478 1478 1478 1477 1477 1477 1477 1477
1480 1481 1482 1481 1476 1477 1476 1475 1476 1476 1476 1476 1476 1477 1477 1478 1478 1478 1478 1478 1479 1479 1479 1478 1478 1477 1477 1476 1476 1476 1476 1476 1475 1475 1475 1475 1475 1474 1474 1473 1473 1473 1474 1473